Data No,UTC Date,UTC Time,Latitude,Longitude,Course(deg),Temp(degC),Sal(psu)
730,2023/4/8,12:09,42-36.78N,141-36.92E,212,5.507,31.0751
731,2023/4/8,12:10,42-36.53N,141-36.75E,198,5.428,31.3146
732,2023/4/8,12:11,42-36.29N,141-36.70E,185,5.396,31.5487
733,2023/4/8,12:12,42-35.99N,141-36.68E,180,5.392,31.5963
734,2023/4/8,12:13,42-35.72N,141-36.68E,179,5.487,31.7112
735,2023/4/8,12:14,42-35.43N,141-36.69E,178,5.617,31.6568
736,2023/4/8,12:15,42-35.14N,141-36.70E,178,5.728,31.6256
737,2023/4/8,12:16,42-34.85N,141-36.71E,179,5.811,31.5832
738,2023/4/8,12:17,42-34.55N,141-36.71E,179,5.725,31.5453
739,2023/4/8,12:18,42-34.27N,141-36.71E,179,5.764,31.5727
740,2023/4/8,12:19,42-33.96N,141-36.71E,179,5.84,31.7035
741,2023/4/8,12:20,42-33.67N,141-36.71E,179,5.876,31.7112
742,2023/4/8,12:21,42-33.36N,141-36.71E,180,5.821,31.7708
743,2023/4/8,12:22,42-33.04N,141-36.71E,180,5.855,31.8952
744,2023/4/8,12:23,42-32.73N,141-36.71E,179,5.913,31.9934
745,2023/4/8,12:24,42-32.42N,141-36.71E,179,5.739,32.0306
746,2023/4/8,12:25,42-32.10N,141-36.72E,179,5.335,32.0588
747,2023/4/8,12:26,42-31.77N,141-36.72E,179,5.692,32.1039
748,2023/4/8,12:27,42-31.45N,141-36.72E,179,5.704,32.1249
749,2023/4/8,12:28,42-31.13N,141-36.72E,180,5.642,32.1031
750,2023/4/8,12:29,42-30.82N,141-36.71E,182,5.6,32.1141
751,2023/4/8,12:30,42-30.51N,141-36.69E,183,5.618,32.1367
752,2023/4/8,12:31,42-30.18N,141-36.66E,183,5.588,32.1767
753,2023/4/8,12:32,42-29.88N,141-36.64E,183,5.461,32.2199
754,2023/4/8,12:33,42-29.56N,141-36.61E,183,5.466,32.2552
755,2023/4/8,12:34,42-29.24N,141-36.59E,183,5.624,32.2561
756,2023/4/8,12:35,42-28.96N,141-36.57E,183,5.931,32.2715
757,2023/4/8,12:36,42-28.64N,141-36.54E,184,5.914,32.2976
758,2023/4/8,12:37,42-28.35N,141-36.52E,183,5.868,32.3207
759,2023/4/8,12:38,42-28.04N,141-36.49E,183,5.889,32.3514
760,2023/4/8,12:39,42-27.73N,141-36.47E,183,5.851,32.357
761,2023/4/8,12:40,42-27.45N,141-36.44E,183,5.853,32.3554
762,2023/4/8,12:41,42-27.13N,141-36.41E,184,5.775,32.3708
763,2023/4/8,12:42,42-26.83N,141-36.38E,184,5.626,32.3737
764,2023/4/8,12:43,42-26.53N,141-36.36E,184,5.556,32.3784
765,2023/4/8,12:44,42-26.24N,141-36.33E,184,5.46,32.3848
766,2023/4/8,12:45,42-25.93N,141-36.30E,184,5.379,32.4009
767,2023/4/8,12:46,42-25.63N,141-36.27E,183,5.388,32.4094
768,2023/4/8,12:47,42-25.33N,141-36.24E,184,5.464,32.4182
769,2023/4/8,12:48,42-25.02N,141-36.21E,184,5.574,32.4194
770,2023/4/8,12:49,42-24.70N,141-36.18E,184,5.563,32.4307
771,2023/4/8,12:50,42-24.41N,141-36.15E,184,5.612,32.46
772,2023/4/8,12:51,42-24.11N,141-36.11E,184,5.839,32.5034
773,2023/4/8,12:52,42-23.80N,141-36.08E,184,6.244,32.5809
774,2023/4/8,12:53,42-23.49N,141-36.05E,184,6.407,32.6952
775,2023/4/8,12:54,42-23.18N,141-36.01E,183,6.582,32.7169
776,2023/4/8,12:55,42-22.88N,141-36.01E,180,6.647,32.7534
777,2023/4/8,12:56,42-22.55N,141-36.01E,179,6.718,32.82
778,2023/4/8,12:57,42-22.25N,141-36.02E,179,7.218,32.872
779,2023/4/8,12:58,42-21.94N,141-36.02E,178,7.419,33.0055
780,2023/4/8,12:59,42-21.64N,141-36.03E,179,7.36,33.0992
781,2023/4/8,13:00,42-21.34N,141-36.04E,178,7.15,33.134
782,2023/4/8,13:01,42-21.04N,141-36.05E,178,6.848,33.1072
783,2023/4/8,13:02,42-20.74N,141-36.05E,179,6.644,33.0194
784,2023/4/8,13:03,42-20.43N,141-36.06E,178,6.38,32.9099
785,2023/4/8,13:04,42-20.11N,141-36.06E,178,6.177,32.8121
786,2023/4/8,13:05,42-19.82N,141-36.07E,178,5.768,32.7199
787,2023/4/8,13:06,42-19.51N,141-36.08E,178,5.426,32.646
788,2023/4/8,13:07,42-19.21N,141-36.08E,178,5.305,32.5405
789,2023/4/8,13:08,42-18.90N,141-36.09E,178,5.277,32.4771
790,2023/4/8,13:09,42-18.60N,141-36.10E,179,5.268,32.4381
791,2023/4/8,13:10,42-18.29N,141-36.10E,178,5.171,32.4029
792,2023/4/8,13:11,42-17.97N,141-36.11E,179,5.116,32.3822
793,2023/4/8,13:12,42-17.69N,141-36.11E,178,5.035,32.3752
794,2023/4/8,13:13,42-17.38N,141-36.12E,179,4.958,32.3716
795,2023/4/8,13:14,42-17.07N,141-36.12E,178,4.901,32.3679
796,2023/4/8,13:15,42-16.76N,141-36.13E,179,4.867,32.3746
797,2023/4/8,13:16,42-16.46N,141-36.13E,179,4.89,32.3669
798,2023/4/8,13:17,42-16.15N,141-36.14E,179,4.894,32.3714
799,2023/4/8,13:18,42-15.85N,141-36.15E,178,4.906,32.3643
800,2023/4/8,13:19,42-15.54N,141-36.15E,179,4.896,32.3614
801,2023/4/8,13:20,42-15.24N,141-36.16E,179,4.912,32.3607
802,2023/4/8,13:21,42-14.95N,141-36.16E,178,4.961,32.3692
803,2023/4/8,13:22,42-14.66N,141-36.17E,179,4.946,32.3842
804,2023/4/8,13:23,42-14.36N,141-36.18E,179,4.897,32.3934
805,2023/4/8,13:24,42-14.05N,141-36.18E,179,4.896,32.407
806,2023/4/8,13:25,42-13.75N,141-36.18E,179,4.897,32.443
807,2023/4/8,13:26,42-13.43N,141-36.19E,179,4.974,32.4658
808,2023/4/8,13:27,42-13.14N,141-36.20E,178,5.095,32.4822
809,2023/4/8,13:28,42-12.83N,141-36.21E,178,5.139,32.505
810,2023/4/8,13:29,42-12.52N,141-36.21E,179,5.181,32.5285
811,2023/4/8,13:30,42-12.22N,141-36.22E,178,5.185,32.544
812,2023/4/8,13:31,42-11.90N,141-36.23E,179,5.14,32.5551
813,2023/4/8,13:32,42-11.60N,141-36.24E,178,5.048,32.5518
814,2023/4/8,13:33,42-11.31N,141-36.25E,178,5.051,32.5585
815,2023/4/8,13:34,42-11.00N,141-36.26E,178,5.076,32.5727
816,2023/4/8,13:35,42-10.71N,141-36.27E,178,5.093,32.5841
817,2023/4/8,13:36,42-10.40N,141-36.28E,178,5.118,32.5851
818,2023/4/8,13:37,42-10.09N,141-36.29E,178,5.105,32.5765
819,2023/4/8,13:38,42-09.80N,141-36.30E,178,5.108,32.5694
820,2023/4/8,13:39,42-09.49N,141-36.31E,178,5.084,32.5665
821,2023/4/8,13:40,42-09.19N,141-36.32E,178,5.07,32.5786
822,2023/4/8,13:41,42-08.88N,141-36.33E,178,5.114,32.5889
823,2023/4/8,13:42,42-08.57N,141-36.34E,178,5.131,32.5986
824,2023/4/8,13:43,42-08.28N,141-36.35E,178,5.122,32.6143
825,2023/4/8,13:44,42-07.96N,141-36.36E,178,5.116,32.6254
826,2023/4/8,13:45,42-07.66N,141-36.38E,178,5.103,32.6237
827,2023/4/8,13:46,42-07.35N,141-36.39E,177,5.081,32.6258
828,2023/4/8,13:47,42-07.05N,141-36.41E,177,5.061,32.6134
829,2023/4/8,13:48,42-06.74N,141-36.42E,178,5.05,32.6053
830,2023/4/8,13:49,42-06.43N,141-36.44E,177,5.046,32.6017
831,2023/4/8,13:50,42-06.13N,141-36.45E,178,5.069,32.607
832,2023/4/8,13:51,42-05.81N,141-36.47E,177,5.119,32.61
833,2023/4/8,13:52,42-05.52N,141-36.48E,177,5.168,32.6162
834,2023/4/8,13:53,42-05.22N,141-36.50E,177,5.214,32.6172
835,2023/4/8,13:54,42-04.90N,141-36.52E,177,5.231,32.6257
836,2023/4/8,13:55,42-04.60N,141-36.54E,177,5.291,32.6267
837,2023/4/8,13:56,42-04.27N,141-36.55E,177,5.226,32.6307
838,2023/4/8,13:57,42-03.98N,141-36.57E,177,5.207,32.6467
839,2023/4/8,13:58,42-03.66N,141-36.59E,176,5.206,32.67
840,2023/4/8,13:59,42-03.34N,141-36.61E,177,5.159,32.689
841,2023/4/8,14:00,42-03.04N,141-36.63E,175,5.125,32.7065
842,2023/4/8,14:01,42-02.73N,141-36.67E,174,5.042,32.71
843,2023/4/8,14:02,42-02.43N,141-36.71E,174,5.029,32.7091
844,2023/4/8,14:03,42-02.11N,141-36.75E,174,5.036,32.7198
845,2023/4/8,14:04,42-01.80N,141-36.80E,174,5.076,32.7266
846,2023/4/8,14:05,42-01.49N,141-36.84E,174,5.087,32.7267
847,2023/4/8,14:06,42-01.18N,141-36.88E,174,5.094,32.7362
848,2023/4/8,14:07,42-00.87N,141-36.92E,174,5.094,32.7525
849,2023/4/8,14:08,42-00.56N,141-36.95E,178,5.075,32.7574
850,2023/4/8,14:09,42-00.24N,141-36.95E,179,5.027,32.7832
851,2023/4/8,14:10,41-59.93N,141-36.95E,179,4.997,32.7977
852,2023/4/8,14:11,41-59.62N,141-36.95E,179,4.984,32.8101
853,2023/4/8,14:12,41-59.31N,141-36.96E,179,4.984,32.7972
854,2023/4/8,14:13,41-59.00N,141-36.97E,179,4.982,32.7633
855,2023/4/8,14:14,41-58.68N,141-36.97E,179,4.965,32.753
856,2023/4/8,14:15,41-58.35N,141-36.97E,179,4.935,32.7503
857,2023/4/8,14:16,41-58.03N,141-36.98E,179,4.902,32.7345
858,2023/4/8,14:17,41-57.72N,141-36.99E,179,4.888,32.736
859,2023/4/8,14:18,41-57.39N,141-36.99E,179,4.862,32.7538
860,2023/4/8,14:19,41-57.07N,141-36.99E,179,4.831,32.7895
861,2023/4/8,14:20,41-56.76N,141-37.00E,179,4.808,32.8143
862,2023/4/8,14:21,41-56.43N,141-37.00E,179,4.813,32.839
863,2023/4/8,14:22,41-56.14N,141-37.01E,179,4.776,32.8607
864,2023/4/8,14:23,41-55.83N,141-37.01E,179,4.77,32.8351
865,2023/4/8,14:24,41-55.51N,141-37.02E,179,4.755,32.7914
866,2023/4/8,14:25,41-55.21N,141-37.02E,179,4.712,32.7763
867,2023/4/8,14:26,41-54.90N,141-37.03E,178,4.67,32.7645
868,2023/4/8,14:27,41-54.59N,141-37.03E,179,4.637,32.757
869,2023/4/8,14:28,41-54.29N,141-37.04E,178,4.61,32.7508
870,2023/4/8,14:29,41-53.98N,141-37.04E,179,4.588,32.7752
871,2023/4/8,14:30,41-53.68N,141-37.05E,178,4.561,32.7966
872,2023/4/8,14:31,41-53.36N,141-37.06E,179,4.591,32.8172
873,2023/4/8,14:32,41-53.04N,141-37.06E,179,4.592,32.8362
874,2023/4/8,14:33,41-52.72N,141-37.07E,179,4.598,32.8357
875,2023/4/8,14:34,41-52.40N,141-37.08E,179,4.631,32.8111
876,2023/4/8,14:35,41-52.08N,141-37.09E,178,4.624,32.7679
877,2023/4/8,14:36,41-51.77N,141-37.09E,179,4.49,32.7462
878,2023/4/8,14:37,41-51.45N,141-37.10E,178,4.443,32.7157
879,2023/4/8,14:38,41-51.13N,141-37.11E,179,4.38,32.6838
880,2023/4/8,14:39,41-50.77N,141-37.11E,180,4.366,32.6612
881,2023/4/8,14:40,41-50.46N,141-37.11E,179,4.298,32.6488
882,2023/4/8,14:41,41-50.12N,141-37.12E,179,4.225,32.6401
883,2023/4/8,14:42,41-49.81N,141-37.12E,179,4.219,32.6366
884,2023/4/8,14:43,41-49.50N,141-37.12E,179,4.23,32.6388
885,2023/4/8,14:44,41-49.21N,141-37.12E,180,4.266,32.6404
886,2023/4/8,14:45,41-48.90N,141-37.12E,180,4.294,32.6454
887,2023/4/8,14:46,41-48.57N,141-37.12E,180,4.339,32.6379
888,2023/4/8,14:47,41-48.26N,141-37.12E,180,4.346,32.6337
889,2023/4/8,14:48,41-47.94N,141-37.12E,180,4.368,32.6134
890,2023/4/8,14:49,41-47.61N,141-37.12E,180,4.409,32.6103
891,2023/4/8,14:50,41-47.28N,141-37.11E,180,4.515,32.6107
892,2023/4/8,14:51,41-46.97N,141-37.11E,180,4.618,32.6157
893,2023/4/8,14:52,41-46.65N,141-37.10E,181,4.777,32.6352
894,2023/4/8,14:53,41-46.33N,141-37.10E,181,4.946,32.6732
895,2023/4/8,14:54,41-46.01N,141-37.09E,181,5.148,32.7192
896,2023/4/8,14:55,41-45.70N,141-37.08E,181,5.553,32.7726
897,2023/4/8,14:56,41-45.37N,141-37.06E,181,6.198,32.8522
898,2023/4/8,14:57,41-45.07N,141-37.06E,181,6.708,32.9869
899,2023/4/8,14:58,41-44.75N,141-37.05E,181,6.819,33.1099
900,2023/4/8,14:59,41-44.41N,141-37.04E,181,6.662,33.2012
901,2023/4/8,15:00,41-44.11N,141-37.03E,181,5.689,33.206
902,2023/4/8,15:01,41-43.79N,141-37.03E,180,5.723,33.1007
903,2023/4/8,15:02,41-43.48N,141-37.03E,179,6.493,33.0145
904,2023/4/8,15:03,41-43.17N,141-37.03E,179,7.53,33.1651
905,2023/4/8,15:04,41-42.84N,141-37.03E,180,8.031,33.4641
906,2023/4/8,15:05,41-42.54N,141-37.02E,180,8.382,33.6169
907,2023/4/8,15:06,41-42.23N,141-37.02E,180,8.486,33.7265
908,2023/4/8,15:07,41-41.91N,141-37.02E,180,8.431,33.81
909,2023/4/8,15:08,41-41.61N,141-37.02E,180,8.197,33.8477
910,2023/4/8,15:09,41-41.29N,141-37.03E,178,7.992,33.8256
911,2023/4/8,15:10,41-40.98N,141-37.05E,177,7.971,33.7683
912,2023/4/8,15:11,41-40.67N,141-37.06E,177,8.021,33.7516
913,2023/4/8,15:12,41-40.37N,141-37.08E,176,8,33.793
914,2023/4/8,15:13,41-40.07N,141-37.10E,177,7.992,33.8216
915,2023/4/8,15:14,41-39.76N,141-37.12E,177,7.963,33.8537
916,2023/4/8,15:15,41-39.45N,141-37.15E,175,7.897,33.8735
917,2023/4/8,15:16,41-39.15N,141-37.18E,176,7.863,33.8872
918,2023/4/8,15:17,41-38.85N,141-37.20E,178,7.855,33.8711
919,2023/4/8,15:18,41-38.54N,141-37.22E,175,7.837,33.8307
920,2023/4/8,15:19,41-38.22N,141-37.25E,176,7.904,33.8042
921,2023/4/8,15:20,41-37.91N,141-37.28E,174,7.757,33.7762
922,2023/4/8,15:21,41-37.60N,141-37.32E,175,7.278,33.747
923,2023/4/8,15:22,41-37.29N,141-37.34E,176,7.089,33.6195
924,2023/4/8,15:23,41-36.98N,141-37.37E,176,6.977,33.5234
925,2023/4/8,15:24,41-36.66N,141-37.39E,176,7.051,33.4808
926,2023/4/8,15:25,41-36.34N,141-37.41E,176,7.344,33.4662
927,2023/4/8,15:26,41-36.00N,141-37.44E,176,7.337,33.5317
928,2023/4/8,15:27,41-35.69N,141-37.47E,176,7.397,33.5319
929,2023/4/8,15:28,41-35.35N,141-37.49E,176,7.413,33.5138
930,2023/4/8,15:29,41-35.02N,141-37.52E,176,7.327,33.4695
931,2023/4/8,15:30,41-34.70N,141-37.54E,176,7.354,33.4394
932,2023/4/8,15:31,41-34.36N,141-37.57E,178,8.8,33.3994
933,2023/4/8,15:32,41-34.05N,141-37.56E,181,9.135,33.6682
934,2023/4/8,15:33,41-33.73N,141-37.54E,183,9.254,33.7861
935,2023/4/8,15:34,41-33.40N,141-37.51E,182,9.341,33.8718
936,2023/4/8,15:35,41-33.08N,141-37.49E,183,9.352,33.9005
937,2023/4/8,15:36,41-32.75N,141-37.47E,182,9.386,33.9337
938,2023/4/8,15:37,41-32.42N,141-37.45E,181,9.226,33.9514
939,2023/4/8,15:38,41-32.12N,141-37.43E,182,9.295,33.9551
940,2023/4/8,15:39,41-31.79N,141-37.41E,182,9.215,33.9616
941,2023/4/8,15:40,41-31.46N,141-37.39E,183,9.141,33.9621
942,2023/4/8,15:41,41-31.14N,141-37.37E,183,9.063,33.9533
943,2023/4/8,15:42,41-30.82N,141-37.34E,183,8.879,33.9338
944,2023/4/8,15:43,41-30.50N,141-37.31E,183,8.949,33.9054
945,2023/4/8,15:44,41-30.18N,141-37.30E,182,9.027,33.9095
946,2023/4/8,15:45,41-29.86N,141-37.28E,181,9.01,33.9069
947,2023/4/8,15:46,41-29.53N,141-37.30E,175,8.947,33.9081
948,2023/4/8,15:47,41-29.22N,141-37.35E,172,8.915,33.9071
949,2023/4/8,15:48,41-28.89N,141-37.42E,170,8.975,33.9072
950,2023/4/8,15:49,41-28.57N,141-37.50E,168,9.037,33.919
951,2023/4/8,15:50,41-28.26N,141-37.58E,169,9.089,33.9309
952,2023/4/8,15:51,41-27.93N,141-37.66E,170,9.185,33.934
953,2023/4/8,15:52,41-27.62N,141-37.73E,169,9.076,33.9425
954,2023/4/8,15:53,41-27.31N,141-37.81E,169,9.051,33.9504
955,2023/4/8,15:54,41-26.98N,141-37.88E,170,9.082,33.9635
956,2023/4/8,15:55,41-26.68N,141-37.95E,169,9.12,33.9704
957,2023/4/8,15:56,41-26.36N,141-38.03E,170,9.16,33.9725
958,2023/4/8,15:57,41-26.02N,141-38.10E,170,9.17,33.9752
959,2023/4/8,15:58,41-25.71N,141-38.17E,170,9.144,33.9719
960,2023/4/8,15:59,41-25.39N,141-38.24E,170,9.062,33.9563
961,2023/4/8,16:00,41-25.08N,141-38.32E,168,9,33.93
962,2023/4/8,16:01,41-24.77N,141-38.41E,168,9.015,33.903
963,2023/4/8,16:02,41-24.45N,141-38.49E,169,9.04,33.8925
964,2023/4/8,16:03,41-24.14N,141-38.56E,169,9.061,33.8911
965,2023/4/8,16:04,41-23.83N,141-38.64E,169,9.057,33.892
966,2023/4/8,16:05,41-23.53N,141-38.72E,169,9.05,33.8895
967,2023/4/8,16:06,41-23.22N,141-38.79E,169,9.076,33.8906
968,2023/4/8,16:07,41-22.88N,141-38.87E,170,9.098,33.8926
969,2023/4/8,16:08,41-22.58N,141-38.95E,170,9.113,33.9036
970,2023/4/8,16:09,41-22.26N,141-39.02E,170,9.094,33.9184
971,2023/4/8,16:10,41-21.94N,141-39.09E,170,9.085,33.929
972,2023/4/8,16:11,41-21.63N,141-39.15E,171,9.087,33.9407
973,2023/4/8,16:12,41-21.30N,141-39.22E,171,9.083,33.9557
974,2023/4/8,16:13,41-20.98N,141-39.28E,171,9.091,33.9694
975,2023/4/8,16:14,41-20.64N,141-39.35E,171,9.091,33.9735
976,2023/4/8,16:15,41-20.31N,141-39.42E,171,9.098,33.9792
977,2023/4/8,16:16,41-20.00N,141-39.48E,172,9.101,33.9809
978,2023/4/8,16:17,41-19.68N,141-39.53E,172,9.096,33.9779
979,2023/4/8,16:18,41-19.36N,141-39.60E,172,9.081,33.9752
980,2023/4/8,16:19,41-19.03N,141-39.66E,171,9.066,33.9639
981,2023/4/8,16:20,41-18.72N,141-39.73E,170,9.038,33.9471
982,2023/4/8,16:21,41-18.41N,141-39.80E,170,9.001,33.9294
983,2023/4/8,16:22,41-18.09N,141-39.87E,170,9.043,33.9062
984,2023/4/8,16:23,41-17.78N,141-39.95E,170,8.986,33.9003
985,2023/4/8,16:24,41-17.45N,141-40.02E,170,8.968,33.8865
986,2023/4/8,16:25,41-17.15N,141-40.09E,169,8.856,33.8744
987,2023/4/8,16:26,41-16.82N,141-40.17E,168,8.762,33.8666
988,2023/4/8,16:27,41-16.51N,141-40.26E,167,9.004,33.8292
989,2023/4/8,16:28,41-16.20N,141-40.36E,167,9.165,33.8662
990,2023/4/8,16:29,41-15.87N,141-40.45E,167,9.382,33.8983
991,2023/4/8,16:30,41-15.56N,141-40.54E,168,9.488,33.9113
992,2023/4/8,16:31,41-15.26N,141-40.62E,168,9.52,33.9167
993,2023/4/8,16:32,41-14.94N,141-40.71E,168,9.569,33.9205
994,2023/4/8,16:33,41-14.63N,141-40.80E,167,9.607,33.9245
995,2023/4/8,16:34,41-14.30N,141-40.89E,167,9.671,33.9322
996,2023/4/8,16:35,41-13.98N,141-40.98E,168,9.739,33.9306
997,2023/4/8,16:36,41-13.67N,141-41.06E,168,9.812,33.9256
998,2023/4/8,16:37,41-13.35N,141-41.15E,168,9.831,33.9112
999,2023/4/8,16:38,41-13.02N,141-41.24E,169,9.87,33.89
1000,2023/4/8,16:39,41-12.71N,141-41.32E,168,9.851,33.8768
1001,2023/4/8,16:40,41-12.39N,141-41.41E,169,9.886,33.8676
1002,2023/4/8,16:41,41-12.08N,141-41.48E,169,9.858,33.8618
1003,2023/4/8,16:42,41-11.76N,141-41.56E,169,9.842,33.854
1004,2023/4/8,16:43,41-11.45N,141-41.64E,169,9.821,33.8572
1005,2023/4/8,16:44,41-11.13N,141-41.72E,169,9.835,33.8643
1006,2023/4/8,16:45,41-10.82N,141-41.80E,168,9.807,33.8764
1007,2023/4/8,16:46,41-10.51N,141-41.88E,168,9.767,33.8831
1008,2023/4/8,16:47,41-10.19N,141-41.96E,168,9.804,33.895
1009,2023/4/8,16:48,41-09.89N,141-42.04E,169,9.833,33.903
1010,2023/4/8,16:49,41-09.58N,141-42.12E,169,9.848,33.9057
1011,2023/4/8,16:50,41-09.27N,141-42.20E,168,9.854,33.908
1012,2023/4/8,16:51,41-08.95N,141-42.28E,169,9.857,33.9054
1013,2023/4/8,16:52,41-08.62N,141-42.36E,169,9.858,33.9037
1014,2023/4/8,16:53,41-08.31N,141-42.43E,169,9.836,33.8976
1015,2023/4/8,16:54,41-07.98N,141-42.51E,169,9.826,33.8808
1016,2023/4/8,16:55,41-07.68N,141-42.59E,169,9.82,33.8672
1017,2023/4/8,16:56,41-07.36N,141-42.67E,169,9.826,33.8599
1018,2023/4/8,16:57,41-07.03N,141-42.75E,169,9.819,33.8497
1019,2023/4/8,16:58,41-06.73N,141-42.82E,169,9.809,33.8464
1020,2023/4/8,16:59,41-06.40N,141-42.89E,170,9.807,33.8481
1021,2023/4/8,17:00,41-06.08N,141-42.97E,169,9.787,33.8531
1022,2023/4/8,17:01,41-05.77N,141-43.04E,170,9.745,33.858
1023,2023/4/8,17:02,41-05.45N,141-43.12E,170,9.721,33.8658
1024,2023/4/8,17:03,41-05.14N,141-43.19E,169,9.713,33.8782
1025,2023/4/8,17:04,41-04.82N,141-43.27E,169,9.728,33.8884
1026,2023/4/8,17:05,41-04.50N,141-43.34E,170,9.742,33.8946
1027,2023/4/8,17:06,41-04.19N,141-43.41E,169,9.747,33.8996
1028,2023/4/8,17:07,41-03.86N,141-43.49E,169,9.742,33.9024
1029,2023/4/8,17:08,41-03.54N,141-43.56E,169,9.74,33.9057
1030,2023/4/8,17:09,41-03.23N,141-43.64E,169,9.738,33.9081
1031,2023/4/8,17:10,41-02.93N,141-43.71E,169,9.725,33.9114
1032,2023/4/8,17:11,41-02.61N,141-43.79E,170,9.713,33.9052
1033,2023/4/8,17:12,41-02.29N,141-43.86E,170,9.709,33.895
1034,2023/4/8,17:13,41-01.97N,141-43.94E,168,9.704,33.8884
1035,2023/4/8,17:14,41-01.65N,141-44.03E,168,9.683,33.8817
1036,2023/4/8,17:15,41-01.36N,141-44.11E,168,9.672,33.8784
1037,2023/4/8,17:16,41-01.05N,141-44.19E,168,9.644,33.876
1038,2023/4/8,17:17,41-00.73N,141-44.28E,168,9.62,33.8759
1039,2023/4/8,17:18,41-00.43N,141-44.36E,168,9.608,33.8805
1040,2023/4/8,17:19,41-00.12N,141-44.44E,169,9.608,33.8825
1041,2023/4/8,17:20,40-59.80N,141-44.53E,168,9.597,33.8923
1042,2023/4/8,17:21,40-59.47N,141-44.61E,168,9.595,33.8987
1043,2023/4/8,17:22,40-59.13N,141-44.70E,168,9.598,33.9075
1044,2023/4/8,17:23,40-58.81N,141-44.78E,168,9.609,33.912
1045,2023/4/8,17:24,40-58.51N,141-44.87E,168,9.611,33.9184
1046,2023/4/8,17:25,40-58.24N,141-44.94E,168,9.611,33.9223
1047,2023/4/8,17:26,40-57.93N,141-45.02E,169,9.611,33.921
1048,2023/4/8,17:27,40-57.62N,141-45.10E,168,9.59,33.9138
1049,2023/4/8,17:28,40-57.31N,141-45.18E,168,9.559,33.9087
1050,2023/4/8,17:29,40-57.00N,141-45.26E,169,9.532,33.9027
1051,2023/4/8,17:30,40-56.68N,141-45.34E,168,9.525,33.8971
1052,2023/4/8,17:31,40-56.36N,141-45.43E,168,9.505,33.8957
1053,2023/4/8,17:32,40-56.01N,141-45.52E,168,9.474,33.8938
1054,2023/4/8,17:33,40-55.71N,141-45.60E,168,9.45,33.8928
1055,2023/4/8,17:34,40-55.43N,141-45.67E,169,9.438,33.8973
1056,2023/4/8,17:35,40-55.10N,141-45.76E,168,9.421,33.8996
1057,2023/4/8,17:36,40-54.81N,141-45.85E,168,9.4,33.9013
1058,2023/4/8,17:37,40-54.48N,141-45.94E,167,9.385,33.9024
1059,2023/4/8,17:38,40-54.16N,141-46.03E,167,9.381,33.9038
1060,2023/4/8,17:39,40-53.85N,141-46.12E,167,9.38,33.9049
1061,2023/4/8,17:40,40-53.53N,141-46.22E,167,9.348,33.9083
1062,2023/4/8,17:41,40-53.23N,141-46.32E,166,9.361,33.9137
1063,2023/4/8,17:42,40-52.91N,141-46.41E,167,9.37,33.9131
1064,2023/4/8,17:43,40-52.60N,141-46.51E,166,9.38,33.8981
1065,2023/4/8,17:44,40-52.29N,141-46.60E,166,9.383,33.8908
1066,2023/4/8,17:45,40-51.98N,141-46.70E,167,9.396,33.8821
1067,2023/4/8,17:46,40-51.66N,141-46.80E,166,9.447,33.8699
1068,2023/4/8,17:47,40-51.35N,141-46.90E,166,9.558,33.8602
1069,2023/4/8,17:48,40-51.04N,141-47.00E,166,9.679,33.8557
1070,2023/4/8,17:49,40-50.72N,141-47.10E,167,9.762,33.8528
1071,2023/4/8,17:50,40-50.37N,141-47.21E,166,9.815,33.8593
1072,2023/4/8,17:51,40-50.07N,141-47.31E,165,9.821,33.86
1073,2023/4/8,17:52,40-49.75N,141-47.41E,166,9.844,33.8586
1074,2023/4/8,17:53,40-49.44N,141-47.50E,166,9.838,33.86
1075,2023/4/8,17:54,40-49.12N,141-47.61E,166,9.81,33.8574
1076,2023/4/8,17:55,40-48.80N,141-47.71E,166,9.8,33.8589
1077,2023/4/8,17:56,40-48.48N,141-47.82E,166,9.808,33.8523
1078,2023/4/8,17:57,40-48.16N,141-47.92E,166,9.812,33.8381
1079,2023/4/8,17:58,40-47.83N,141-48.02E,167,9.812,33.8221
1080,2023/4/8,17:59,40-47.52N,141-48.12E,167,9.81,33.8121
1081,2023/4/8,18:00,40-47.19N,141-48.23E,165,9.813,33.8136
1082,2023/4/8,18:01,40-46.88N,141-48.33E,166,9.796,33.814
1083,2023/4/8,18:02,40-46.56N,141-48.43E,166,9.763,33.8084
1084,2023/4/8,18:03,40-46.23N,141-48.54E,165,9.766,33.8143
1085,2023/4/8,18:04,40-45.92N,141-48.64E,166,9.766,33.815
1086,2023/4/8,18:05,40-45.64N,141-48.73E,165,9.777,33.8116
1087,2023/4/8,18:06,40-45.32N,141-48.84E,166,9.787,33.8094
1088,2023/4/8,18:07,40-45.01N,141-48.93E,166,9.812,33.8021
1089,2023/4/8,18:08,40-44.69N,141-49.03E,166,9.838,33.8007
1090,2023/4/8,18:09,40-44.37N,141-49.13E,166,9.861,33.7917
1091,2023/4/8,18:10,40-44.05N,141-49.24E,166,9.894,33.7858
1092,2023/4/8,18:11,40-43.72N,141-49.34E,167,9.924,33.785
1093,2023/4/8,18:12,40-43.42N,141-49.42E,167,9.932,33.7873
1094,2023/4/8,18:13,40-43.07N,141-49.53E,167,9.948,33.7849
1095,2023/4/8,18:14,40-42.78N,141-49.62E,167,9.957,33.7854
1096,2023/4/8,18:15,40-42.46N,141-49.71E,167,9.996,33.783
1097,2023/4/8,18:16,40-42.14N,141-49.80E,167,10.014,33.7881
1098,2023/4/8,18:17,40-41.82N,141-49.90E,167,10.018,33.7823
1099,2023/4/8,18:18,40-41.50N,141-49.99E,167,10.006,33.7808
1100,2023/4/8,18:19,40-41.18N,141-50.08E,167,9.985,33.7813
1101,2023/4/8,18:20,40-40.85N,141-50.17E,167,9.972,33.7914
1102,2023/4/8,18:21,40-40.54N,141-50.26E,167,9.96,33.7984
1103,2023/4/8,18:22,40-40.22N,141-50.35E,168,9.955,33.8061
1104,2023/4/8,18:23,40-39.89N,141-50.45E,167,9.943,33.8105
1105,2023/4/8,18:24,40-39.59N,141-50.54E,167,9.959,33.81
1106,2023/4/8,18:25,40-39.27N,141-50.63E,167,9.988,33.8114
1107,2023/4/8,18:26,40-38.94N,141-50.73E,167,9.995,33.8089
1108,2023/4/8,18:27,40-38.63N,141-50.82E,167,9.985,33.8067
1109,2023/4/8,18:28,40-38.31N,141-50.91E,167,9.971,33.8052
1110,2023/4/8,18:29,40-37.99N,141-51.01E,167,9.978,33.8069
1111,2023/4/8,18:30,40-37.67N,141-51.10E,167,9.987,33.8035
1112,2023/4/8,18:31,40-37.36N,141-51.19E,167,9.983,33.7963
1113,2023/4/8,18:32,40-37.04N,141-51.29E,167,9.961,33.7912
1114,2023/4/8,18:33,40-36.71N,141-51.39E,166,9.908,33.7943
1115,2023/4/8,18:34,40-36.40N,141-51.48E,166,9.875,33.7982
1116,2023/4/8,18:35,40-36.08N,141-51.57E,167,9.855,33.8123
1117,2023/4/8,18:36,40-35.75N,141-51.67E,167,9.831,33.8144
1118,2023/4/8,18:37,40-35.43N,141-51.77E,167,9.829,33.8237
1119,2023/4/8,18:38,40-35.13N,141-51.86E,167,9.839,33.832
1120,2023/4/8,18:39,40-34.81N,141-51.95E,167,9.857,33.8386
1121,2023/4/8,18:40,40-34.49N,141-52.05E,167,9.872,33.8428
1122,2023/4/8,18:41,40-34.17N,141-52.15E,167,9.909,33.8415
1123,2023/4/8,18:42,40-33.87N,141-52.24E,167,9.961,33.8444
1124,2023/4/8,18:43,40-33.54N,141-52.33E,167,10.014,33.8387
1125,2023/4/8,18:44,40-33.23N,141-52.42E,166,10.036,33.8315
1126,2023/4/8,18:45,40-32.91N,141-52.52E,167,10.053,33.8223
1127,2023/4/8,18:46,40-32.60N,141-52.61E,167,10.051,33.8198
1128,2023/4/8,18:47,40-32.28N,141-52.71E,167,10.043,33.8187
1129,2023/4/8,18:48,40-31.95N,141-52.81E,167,9.995,33.8173
1130,2023/4/8,18:49,40-31.65N,141-52.90E,167,9.955,33.8175
1131,2023/4/8,18:50,40-31.32N,141-53.00E,167,9.932,33.8211
1132,2023/4/8,18:51,40-31.00N,141-53.09E,167,9.882,33.8192
1133,2023/4/8,18:52,40-30.70N,141-53.19E,167,9.826,33.8216